Tracking 28794 objects as of 19-Apr-2024
HD Live streaming from Space Station
objects crossing your sky now

STARLINK-1667

Track STARLINK-1667 now!
10-day predictions
STARLINK-1667 is classified as:


NORAD ID: 46155
Int'l Code: 2020-057AQ
Perigee: 553.7 km
Apogee: 555.0 km
Inclination: 53.1 °
Period: 95.6 minutes
Semi major axis: 6925 km
RCS: Unknown
Launch date: August 18, 2020
Source: United States (US)
Launch site: AIR FORCE EASTERN TEST RANGE (AFETR)
Your satellite tracking list
Your tracking list is empty




NASA's NSSDC Master Catalog

Two Line Element Set (TLE):
1 46155U 20057AQ  24110.47024658  .00003690  00000-0  26652-3 0  9991
2 46155  53.0542 130.6385 0000929  81.8566 278.2528 15.06398127203407
Source of the keplerian elements: AFSPC